TimeMST,TemperatureF,Dew PointF,Humidity,Sea Level PressureIn,VisibilityMPH,Wind Direction,Wind SpeedMPH,Gust SpeedMPH,PrecipitationIn,Events,Conditions,WindDirDegrees,DateUTC
12:53 AM,27.0,21.9,81,30.13,10.0,SSW,6.9,-,N/A,,Clear,210,2012-11-28 07:53:00
1:53 AM,28.0,21.0,75,30.11,10.0,SSW,9.2,-,N/A,,Clear,210,2012-11-28 08:53:00
2:53 AM,30.0,21.9,72,30.09,10.0,SW,11.5,-,N/A,,Clear,230,2012-11-28 09:53:00
3:53 AM,35.1,21.0,57,30.07,10.0,WSW,10.4,-,N/A,,Clear,240,2012-11-28 10:53:00
4:53 AM,33.8,21.2,60,29.99,10.0,SW,12.7,-,N/A,,Clear,230,2012-11-28 11:53:00
5:53 AM,35.1,21.9,59,30.07,10.0,WSW,11.5,-,N/A,,Clear,240,2012-11-28 12:53:00
6:53 AM,41.0,21.0,45,30.06,10.0,WSW,18.4,-,N/A,,Clear,250,2012-11-28 13:53:00
7:53 AM,39.0,21.9,50,30.07,10.0,WSW,16.1,-,N/A,,Scattered Clouds,240,2012-11-28 14:53:00
8:53 AM,37.9,21.9,53,30.08,10.0,SW,12.7,-,N/A,,Scattered Clouds,230,2012-11-28 15:53:00
9:53 AM,39.0,24.1,55,30.09,10.0,SW,11.5,-,N/A,,Partly Cloudy,230,2012-11-28 16:53:00
10:53 AM,42.1,25.0,51,30.06,10.0,SW,12.7,-,N/A,,Partly Cloudy,220,2012-11-28 17:53:00
11:53 AM,46.0,26.1,46,30.05,10.0,WSW,9.2,-,N/A,,Partly Cloudy,240,2012-11-28 18:53:00
12:53 PM,48.9,26.1,41,30.03,10.0,SW,5.8,-,N/A,,Partly Cloudy,230,2012-11-28 19:53:00
1:53 PM,50.0,26.1,39,29.99,10.0,WSW,8.1,-,N/A,,Partly Cloudy,240,2012-11-28 20:53:00
2:53 PM,46.9,28.9,50,29.97,10.0,SSW,4.6,-,N/A,,Partly Cloudy,210,2012-11-28 21:53:00
3:53 PM,44.1,28.9,55,29.96,10.0,South,4.6,-,N/A,,Partly Cloudy,180,2012-11-28 22:53:00
4:53 PM,46.0,28.0,50,29.95,10.0,South,3.5,-,N/A,,Clear,190,2012-11-28 23:53:00
5:53 PM,42.1,28.9,60,29.93,10.0,SSW,6.9,-,N/A,,Clear,200,2012-11-29 00:53:00
6:53 PM,42.1,26.1,53,29.91,10.0,SW,8.1,-,N/A,,Clear,220,2012-11-29 01:53:00
7:53 PM,42.1,23.0,47,29.91,10.0,WSW,13.8,-,N/A,,Clear,240,2012-11-29 02:53:00
8:53 PM,43.0,21.9,43,29.89,10.0,SW,10.4,-,N/A,,Clear,230,2012-11-29 03:53:00
9:53 PM,43.0,21.9,43,29.88,10.0,SW,10.4,-,N/A,,Clear,230,2012-11-29 04:53:00
10:53 PM,42.1,21.9,45,29.86,10.0,SW,3.5,-,N/A,,Partly Cloudy,230,2012-11-29 05:53:00
11:53 PM,41.0,23.0,49,29.85,10.0,SW,8.1,-,N/A,,Partly Cloudy,230,2012-11-29 06:53:00